GW6944 Weather Reports


time (UTC)temp
C
wind
direction
speed
KPH
gust
KPH
rain 1hr
cm
rain 24hr
cm
rain mn
cm
humidity
%
barometer
mb
20260509000358 20 235 1.6 4.8 0.00 0.00 0.00 37 1045.0
20260508235853 20 275 3.2 6.4 0.00 0.00 0.00 36 1044.7
20260508235350 20 195 0.0 3.2 0.00 0.00 0.00 37 1044.8
20260508234848 20 231 4.8 9.7 0.00 0.00 0.00 34 1045.0
20260508234344 20 287 3.2 4.8 0.00 0.00 0.00 36 1045.0
20260508233843 20 289 8.0 11.3 0.00 0.00 0.00 34 1045.1
20260508233342 20 241 4.8 12.9 0.00 0.00 0.00 35 1045.2
20260508232838 20 199 4.8 11.3 0.00 0.00 0.00 34 1045.1
20260508232334 20 97 6.4 9.7 0.00 0.00 0.00 33 1045.0
20260508231833 20 279 3.2 11.3 0.00 0.00 0.00 33 1045.0
20260508231329 21 261 3.2 14.5 0.00 0.00 0.00 35 1045.1
20260508230826 21 298 6.4 11.3 0.00 0.00 0.00 31 1045.1
20260508230322 21 237 4.8 12.9 0.00 0.00 0.00 32 1045.1
20260508225820 21 167 11.3 12.9 0.00 0.00 0.00 31 1045.1
20260508225316 21 294 3.2 12.9 0.00 0.00 0.00 31 1045.2
20260508224814 21 214 3.2 9.7 0.00 0.00 0.00 30 1045.1
20260508224312 21 289 9.7 14.5 0.00 0.00 0.00 30 1045.1
20260508223809 21 211 3.2 14.5 0.00 0.00 0.00 32 1045.1
20260508223306 21 314 6.4 9.7 0.00 0.00 0.00 29 1045.1
20260508222804 22 288 11.3 17.7 0.00 0.00 0.00 30 1045.2
20260508222301 21 109 1.6 4.8 0.00 0.00 0.00 35 1045.0
20260508221757 22 301 4.8 11.3 0.00 0.00 0.00 32 1045.0
20260508221253 22 271 9.7 12.9 0.00 0.00 0.00 30 1044.9
20260508220750 22 238 4.8 11.3 0.00 0.00 0.00 34 1045.1
20260508220246 21 270 4.8 6.4 0.00 0.00 0.00 32 1044.8
20260508215742 22 225 3.2 11.3 0.00 0.00 0.00 30 1045.1
20260508215239 22 243 9.7 14.5 0.00 0.00 0.00 31 1045.0
20260508214736 22 246 6.4 9.7 0.00 0.00 0.00 32 1044.8
20260508214234 22 243 6.4 11.3 0.00 0.00 0.00 30 1045.1
20260508213730 22 224 6.4 16.1 0.00 0.00 0.00 31 1045.1
20260508213226 22 229 4.8 11.3 0.00 0.00 0.00 31 1044.8
20260508212723 22 209 14.5 16.1 0.00 0.00 0.00 29 1044.7
20260508212219 22 176 6.4 12.9 0.00 0.00 0.00 31 1044.8
20260508211715 22 180 3.2 9.7 0.00 0.00 0.00 28 1045.0
20260508211211 22 213 4.8 14.5 0.00 0.00 0.00 33 1045.2
20260508210709 22 303 14.5 20.9 0.00 0.00 0.00 30 1045.2
20260508210206 22 166 3.2 11.3 0.00 0.00 0.00 31 1045.3
20260508205702 22 309 4.8 9.7 0.00 0.00 0.00 33 1045.5
20260508205159 22 312 8.0 12.9 0.00 0.00 0.00 33 1045.4
20260508204655 22 184 4.8 14.5 0.00 0.00 0.00 31 1045.6
20260508204151 22 288 8.0 11.3 0.00 0.00 0.00 32 1045.8
20260508203648 22 222 3.2 14.5 0.00 0.00 0.00 34 1045.6
20260508203144 22 282 8.0 9.7 0.00 0.00 0.00 34 1045.7
20260508202640 22 213 1.6 6.4 0.00 0.00 0.00 36 1045.6
20260508202138 22 243 3.2 17.7 0.00 0.00 0.00 31 1046.1
20260508201634 22 189 1.6 11.3 0.00 0.00 0.00 33 1046.0
20260508201131 22 294 4.8 12.9 0.00 0.00 0.00 34 1046.2
20260508200628 22 203 3.2 11.3 0.00 0.00 0.00 34 1046.5
20260508200124 21 183 4.8 12.9 0.00 0.00 0.00 32 1046.6
20260508195620 22 127 9.7 20.9 0.00 0.00 0.00 31 1046.1
20260508195117 22 311 4.8 6.4 0.00 0.00 0.00 35 1046.4
20260508194613 22 261 6.4 6.4 0.00 0.00 0.00 32 1046.1
20260508194111 22 106 11.3 16.1 0.00 0.00 0.00 31 1046.3
20260508193608 22 162 4.8 11.3 0.00 0.00 0.00 33 1046.3
20260508193104 21 132 9.7 16.1 0.00 0.00 0.00 31 1046.2
20260508192601 21 228 3.2 16.1 0.00 0.00 0.00 35 1046.3
20260508192058 21 302 3.2 11.3 0.00 0.00 0.00 35 1046.4
20260508191554 21 176 3.2 16.1 0.00 0.00 0.00 31 1046.5
20260508191051 21 237 9.7 12.9 0.00 0.00 0.00 29 1046.5
20260508190548 21 217 8.0 16.1 0.00 0.00 0.00 32 1046.5
20260508190045 21 247 9.7 17.7 0.00 0.00 0.00 31 1046.5
20260508185542 21 266 6.4 14.5 0.00 0.00 0.00 35 1046.6
20260508185039 21 178 9.7 12.9 0.00 0.00 0.00 33 1046.8
20260508184537 21 269 8.0 16.1 0.00 0.00 0.00 35 1046.7
20260508184033 21 229 8.0 14.5 0.00 0.00 0.00 33 1047.1
20260508183530 21 249 3.2 11.3 0.00 0.00 0.00 33 1046.9
20260508183026 21 260 9.7 11.3 0.00 0.00 0.00 36 1047.0
20260508182523 21 194 6.4 12.9 0.00 0.00 0.00 34 1047.3
20260508182019 21 122 4.8 20.9 0.00 0.00 0.00 34 1047.2
20260508181515 21 138 6.4 16.1 0.00 0.00 0.00 34 1047.7
20260508181013 21 250 9.7 12.9 0.00 0.00 0.00 34 1047.7
20260508180509 21 253 3.2 6.4 0.00 0.00 0.00 36 1047.9
20260508180005 21 278 4.8 12.9 0.00 0.00 0.00 32 1047.8
20260508175502 21 219 6.4 16.1 0.00 0.00 0.00 32 1048.0
20260508174959 21 261 9.7 16.1 0.00 0.00 0.00 34 1048.2
20260508174457 21 153 8.0 14.5 0.00 0.00 0.00 38 1048.3
20260508173953 20 144 6.4 14.5 0.00 0.00 0.00 35 1048.4
20260508173451 20 184 4.8 9.7 0.00 0.00 0.00 34 1048.5
20260508172946 21 197 3.2 12.9 0.00 0.00 0.00 36 1048.5
20260508172444 21 307 14.5 17.7 0.00 0.00 0.00 38 1048.5
20260508171940 20 255 3.2 4.8 0.00 0.00 0.00 35 1048.5
20260508171437 20 162 9.7 16.1 0.00 0.00 0.00 35 1048.7
20260508170933 20 113 6.4 14.5 0.00 0.00 0.00 38 1048.9
20260508170431 20 149 8.0 14.5 0.00 0.00 0.00 36 1048.8
20260508165927 20 159 8.0 12.9 0.00 0.00 0.00 37 1049.0
20260508165426 20 273 4.8 6.4 0.00 0.00 0.00 38 1049.3
20260508164921 20 178 4.8 9.7 0.00 0.00 0.00 38 1049.1
20260508164418 20 247 6.4 9.7 0.00 0.00 0.00 38 1049.3
20260508163915 20 258 6.4 9.7 0.00 0.00 0.00 41 1049.5
20260508163413 20 317 1.6 6.4 0.00 0.00 0.00 40 1049.8
20260508162908 20 238 4.8 14.5 0.00 0.00 0.00 38 1049.6
20260508162406 20 216 3.2 9.7 0.00 0.00 0.00 38 1049.7
20260508161903 20 230 3.2 12.9 0.00 0.00 0.00 36 1049.6
20260508161400 20 196 6.4 9.7 0.00 0.00 0.00 38 1050.0
20260508160857 20 124 8.0 12.9 0.00 0.00 0.00 37 1050.0
20260508160356 18 249 3.2 4.8 0.00 0.00 0.00 40 1049.9
20260508155852 19 282 11.3 14.5 0.00 0.00 0.00 36 1049.9
20260508155349 19 213 6.4 9.7 0.00 0.00 0.00 42 1050.0
20260508154846 18 217 3.2 9.7 0.00 0.00 0.00 37 1050.1
20260508154344 18 276 3.2 11.3 0.00 0.00 0.00 38 1050.0
20260508153840 18 313 6.4 11.3 0.00 0.00 0.00 37 1050.4
20260508153337 18 156 8.0 12.9 0.00 0.00 0.00 39 1050.2
20260508152833 18 243 4.8 9.7 0.00 0.00 0.00 42 1050.3
20260508152330 18 285 4.8 11.3 0.00 0.00 0.00 40 1050.5
20260508151826 18 229 4.8 11.3 0.00 0.00 0.00 39 1050.5
20260508151323 18 276 3.2 6.4 0.00 0.00 0.00 42 1050.4
20260508150819 18 212 3.2 11.3 0.00 0.00 0.00 40 1050.5
20260508150316 18 221 3.2 6.4 0.00 0.00 0.00 42 1050.6
20260508145812 17 267 1.6 9.7 0.00 0.00 0.00 42 1050.7
20260508145309 17 322 11.3 12.9 0.00 0.00 0.00 41 1050.8
20260508144806 17 163 4.8 4.8 0.00 0.00 0.00 42 1050.7
20260508144304 17 140 4.8 9.7 0.00 0.00 0.00 45 1050.6
20260508143801 17 185 3.2 4.8 0.00 0.00 0.00 42 1050.7
20260508143258 17 252 4.8 9.7 0.00 0.00 0.00 43 1050.7
20260508142754 17 225 3.2 9.7 0.00 0.00 0.00 40 1050.6
20260508142251 16 273 6.4 11.3 0.00 0.00 0.00 44 1050.4
20260508141748 16 282 11.3 12.9 0.00 0.00 0.00 47 1050.5
20260508141245 16 291 6.4 11.3 0.00 0.00 0.00 50 1050.6
20260508140742 15 263 1.6 6.4 0.00 0.00 0.00 51 1050.7
20260508140239 15 253 4.8 11.3 0.00 0.00 0.00 49 1050.8
20260508135735 15 255 6.4 6.4 0.00 0.00 0.00 50 1050.6
20260508135231 14 216 3.2 4.8 0.00 0.00 0.00 52 1050.8
20260508134727 13 258 3.2 4.8 0.00 0.00 0.00 55 1050.6
20260508134225 13 272 6.4 6.4 0.00 0.00 0.00 56 1051.0
20260508133721 13 270 3.2 9.7 0.00 0.00 0.00 58 1050.8
20260508133219 12 233 4.8 4.8 0.00 0.00 0.00 57 1050.6
20260508132716 12 279 3.2 4.8 0.00 0.00 0.00 63 1050.8
20260508132214 12 297 4.8 4.8 0.00 0.00 0.00 61 1050.7
20260508131709 11 237 3.2 4.8 0.00 0.00 0.00 62 1050.9
20260508131206 11 290 4.8 4.8 0.00 0.00 0.00 65 1050.8
20260508130702 10 203 3.2 3.2 0.00 0.00 0.00 66 1050.7
20260508130200 10 253 1.6 1.6 0.00 0.00 0.00 65 1050.6
20260508125655 10 266 3.2 3.2 0.00 0.00 0.00 64 1050.6
20260508125151 10 247 4.8 6.4 0.00 0.00 0.00 64 1051.0
20260508124650 10 226 1.6 1.6 0.00 0.00 0.00 65 1050.7
20260508124146 10 118 3.2 4.8 0.00 0.00 0.00 66 1050.9
20260508123645 9 175 1.6 1.6 0.00 0.00 0.00 69 1050.6
20260508123142 9 186 3.2 3.2 0.00 0.00 0.00 64 1050.4
20260508122638 8 135 1.6 3.2 0.00 0.00 0.00 68 1050.5
20260508122135 8 141 1.6 3.2 0.00 0.00 0.00 67 1050.5
20260508121633 8 204 0.0 3.2 0.00 0.00 0.00 69 1050.5
20260508121132 8 165 0.0 3.2 0.00 0.00 0.00 69 1050.5
20260508120628 8 153 3.2 3.2 0.00 0.00 0.00 71 1050.3
20260508120127 7 125 1.6 3.2 0.00 0.00 0.00 72 1050.5
20260508115624 7 131 0.0 1.6 0.00 0.00 0.00 76 1050.7
20260508115120 6 115 0.0 1.6 0.00 0.00 0.00 77 1050.5
20260508114618 6 115 0.0 1.6 0.00 0.00 0.00 77 1050.6
20260508114113 6 118 1.6 1.6 0.00 0.00 0.00 78 1050.7
20260508113611 6 107 1.6 3.2 0.00 0.00 0.00 78 1050.3
20260508113109 5 115 1.6 3.2 0.00 0.00 0.00 82 1050.0
20260508112605 4 115 1.6 3.2 0.00 0.00 0.00 90 1050.1
20260508112102 4 119 0.0 0.0 0.00 0.00 0.00 92 1050.1
20260508111559 3 119 0.0 1.6 0.00 0.00 0.00 94 1050.1
20260508111056 3 114 0.0 0.0 0.00 0.00 0.00 94 1050.4
20260508110554 3 114 0.0 0.0 0.00 0.00 0.00 93 1050.1
20260508110050 3 114 0.0 0.0 0.00 0.00 0.00 93 1049.8
20260508105544 3 114 0.0 0.0 0.00 0.00 0.00 94 1050.0
20260508105042 3 114 0.0 0.0 0.00 0.00 0.00 93 1050.1
20260508104540 3 114 0.0 0.0 0.00 0.00 0.00 93 1050.0
20260508104036 3 114 0.0 0.0 0.00 0.00 0.00 93 1049.8
20260508103533 3 114 0.0 0.0 0.00 0.00 0.00 93 1049.9
20260508103031 3 114 0.0 0.0 0.00 0.00 0.00 93 1049.7
20260508102528 3 114 0.0 0.0 0.00 0.00 0.00 92 1050.0
20260508102026 3 114 0.0 0.0 0.00 0.00 0.00 92 1049.8
20260508101523 2 114 0.0 0.0 0.00 0.00 0.00 91 1049.6
20260508101020 3 114 0.0 0.0 0.00 0.00 0.00 90 1049.7
20260508100518 3 114 0.0 0.0 0.00 0.00 0.00 90 1049.8
20260508100015 3 114 0.0 0.0 0.00 0.00 0.00 89 1049.7
20260508095512 3 114 0.0 0.0 0.00 0.00 0.00 89 1049.7
20260508095009 3 114 0.0 0.0 0.00 0.00 0.00 88 1049.6
20260508094506 4 114 0.0 0.0 0.00 0.00 0.00 87 1049.6
20260508094003 4 114 0.0 0.0 0.00 0.00 0.00 86 1049.7
20260508093500 5 114 0.0 0.0 0.00 0.00 0.00 84 1049.8
20260508092957 5 114 0.0 3.2 0.00 0.00 0.00 84 1049.8
20260508092455 5 105 1.6 1.6 0.00 0.00 0.00 84 1049.6
20260508091954 4 105 0.0 1.6 0.00 0.00 0.00 87 1049.8
20260508091450 5 105 0.0 0.0 0.00 0.00 0.00 86 1049.9
20260508090947 5 105 0.0 0.0 0.00 0.00 0.00 87 1049.5
20260508090445 4 104 0.0 1.6 0.00 0.00 0.00 88 1049.9
20260508085941 4 104 0.0 0.0 0.00 0.00 0.00 88 1049.7
20260508085438 5 104 0.0 0.0 0.00 0.00 0.00 86 1049.9
20260508084935 5 104 0.0 0.0 0.00 0.00 0.00 86 1049.8
20260508084431 4 81 1.6 1.6 0.00 0.00 0.00 87 1049.8
20260508083929 4 55 0.0 0.0 0.00 0.00 0.00 87 1049.9
20260508083426 4 55 0.0 0.0 0.00 0.00 0.00 88 1049.8
20260508082926 4 55 0.0 0.0 0.00 0.00 0.00 88 1050.0
20260508082424 4 55 0.0 0.0 0.00 0.00 0.00 88 1049.9
20260508081922 4 55 0.0 0.0 0.00 0.00 0.00 89 1049.9
20260508081418 4 55 0.0 0.0 0.00 0.00 0.00 90 1049.7
20260508080914 4 55 0.0 0.0 0.00 0.00 0.00 92 1050.0
20260508080413 3 55 0.0 0.0 0.00 0.00 0.00 93 1049.8
20260508075909 3 55 0.0 0.0 0.00 0.00 0.00 93 1049.7
20260508075406 3 55 0.0 0.0 0.00 0.00 0.00 93 1049.8
20260508074904 3 55 0.0 1.6 0.00 0.00 0.00 93 1049.8
20260508074401 3 55 0.0 0.0 0.00 0.00 0.00 93 1049.7
20260508073858 3 55 0.0 0.0 0.00 0.00 0.00 92 1049.7
20260508073356 3 55 0.0 0.0 0.00 0.00 0.00 94 1049.8
20260508072852 3 55 0.0 1.6 0.00 0.00 0.00 94 1049.7
20260508072348 3 55 0.0 0.0 0.00 0.00 0.00 94 1049.8
20260508071846 3 55 0.0 0.0 0.00 0.00 0.00 93 1049.9
20260508071344 3 55 0.0 0.0 0.00 0.00 0.00 93 1049.8
20260508070841 3 55 0.0 0.0 0.00 0.00 0.00 93 1049.8
20260508070339 3 55 0.0 0.0 0.00 0.00 0.00 93 1049.8
20260508065837 3 55 0.0 0.0 0.00 0.00 0.00 93 1049.9
20260508065335 3 55 0.0 0.0 0.00 0.00 0.00 93 1049.8
20260508064833 3 55 0.0 0.0 0.00 0.00 0.00 94 1049.7
20260508064330 3 55 0.0 0.0 0.00 0.00 0.00 94 1049.6
20260508063827 3 55 0.0 0.0 0.00 0.00 0.00 93 1049.8
20260508063325 3 55 0.0 0.0 0.00 0.00 0.00 93 1049.8
20260508062822 3 55 0.0 0.0 0.00 0.00 0.00 93 1049.9
20260508062320 3 55 0.0 0.0 0.00 0.00 0.00 93 1049.9
20260508061816 3 55 0.0 0.0 0.00 0.00 0.00 93 1049.9
20260508061314 3 55 0.0 0.0 0.00 0.00 0.00 93 1049.9
20260508060810 3 55 0.0 0.0 0.00 0.00 0.00 92 1050.1
20260508060309 3 55 0.0 0.0 0.00 0.00 0.00 92 1050.0
20260508055808 3 55 0.0 0.0 0.00 0.00 0.00 92 1050.0
20260508055307 4 55 0.0 0.0 0.00 0.00 0.00 92 1050.3
20260508054803 4 59 1.6 1.6 0.00 0.00 0.00 92 1050.3
20260508054300 4 105 0.0 0.0 0.00 0.00 0.00 92 1050.4
20260508053757 4 105 0.0 0.0 0.00 0.00 0.00 93 1050.4
20260508053255 4 104 0.0 0.0 0.00 0.00 0.00 91 1050.4
20260508052752 4 104 0.0 0.0 0.00 0.00 0.00 91 1050.4
20260508052249 4 104 0.0 0.0 0.00 0.00 0.00 91 1050.2
20260508051745 4 104 0.0 0.0 0.00 0.00 0.00 91 1050.3
20260508051240 4 104 0.0 0.0 0.00 0.00 0.00 89 1050.4
20260508050737 5 104 0.0 0.0 0.00 0.00 0.00 88 1050.2
20260508050234 5 104 0.0 0.0 0.00 0.00 0.00 89 1050.2
20260508045729 5 104 1.6 1.6 0.00 0.00 0.00 91 1049.9
20260508045228 5 313 0.0 0.0 0.00 0.00 0.00 90 1050.1
20260508044725 5 313 0.0 0.0 0.00 0.00 0.00 90 1050.0
20260508044222 5 313 0.0 0.0 0.00 0.00 0.00 90 1050.0
20260508043717 5 313 0.0 0.0 0.00 0.00 0.00 89 1049.9
20260508043216 5 313 0.0 0.0 0.00 0.00 0.00 88 1050.1
20260508042712 5 313 1.6 1.6 0.00 0.00 0.00 89 1050.2
20260508042209 5 313 0.0 0.0 0.00 0.00 0.00 88 1050.2
20260508041705 5 313 0.0 0.0 0.00 0.00 0.00 88 1050.1
20260508041203 5 313 0.0 0.0 0.00 0.00 0.00 89 1050.2
20260508040659 5 313 0.0 0.0 0.00 0.00 0.00 89 1050.0
20260508040157 5 313 0.0 0.0 0.00 0.00 0.00 88 1049.9
20260508035654 5 313 0.0 0.0 0.00 0.00 0.00 88 1050.0
20260508035151 5 313 0.0 0.0 0.00 0.00 0.00 87 1050.1
20260508034647 5 313 0.0 0.0 0.00 0.00 0.00 86 1050.1
20260508034144 6 313 0.0 0.0 0.00 0.00 0.00 85 1049.9
20260508033642 5 313 0.0 0.0 0.00 0.00 0.00 87 1050.0
20260508033141 6 313 0.0 0.0 0.00 0.00 0.00 87 1050.0
20260508032636 6 313 0.0 0.0 0.00 0.00 0.00 87 1050.0
20260508032134 6 313 0.0 0.0 0.00 0.00 0.00 87 1050.3
20260508031631 6 313 0.0 0.0 0.00 0.00 0.00 84 1050.1
20260508031127 6 313 0.0 0.0 0.00 0.00 0.00 83 1050.3
20260508030623 6 313 0.0 0.0 0.00 0.00 0.00 81 1049.9
20260508030121 6 313 0.0 0.0 0.00 0.00 0.00 84 1050.3
20260508025617 7 313 0.0 0.0 0.00 0.00 0.00 82 1050.2
20260508025115 6 313 0.0 0.0 0.00 0.00 0.00 82 1050.0
20260508024610 7 313 0.0 0.0 0.00 0.00 0.00 81 1050.0
20260508024108 7 313 0.0 0.0 0.00 0.00 0.00 78 1050.0
20260508023604 7 313 0.0 0.0 0.00 0.00 0.00 72 1049.9
20260508023101 7 313 0.0 0.0 0.00 0.00 0.00 82 1049.8
20260508022557 7 313 0.0 0.0 0.00 0.00 0.00 80 1050.1
20260508022054 7 313 0.0 0.0 0.00 0.00 0.00 82 1050.0
20260508021550 7 313 0.0 0.0 0.00 0.00 0.00 81 1050.0
20260508021046 7 313 0.0 0.0 0.00 0.00 0.00 77 1049.9
20260508020544 8 313 0.0 0.0 0.00 0.00 0.00 78 1049.8
20260508020041 8 313 0.0 0.0 0.00 0.00 0.00 75 1049.9
20260508015539 8 313 0.0 0.0 0.00 0.00 0.00 67 1049.7
20260508015036 8 313 0.0 0.0 0.00 0.00 0.00 67 1049.5
20260508014532 8 313 0.0 0.0 0.00 0.00 0.00 75 1049.6
20260508014028 8 313 0.0 0.0 0.00 0.00 0.00 79 1049.4
20260508013524 8 313 0.0 0.0 0.00 0.00 0.00 78 1049.4
20260508013021 9 313 0.0 0.0 0.00 0.00 0.00 76 1049.4
20260508012519 9 313 0.0 0.0 0.00 0.00 0.00 77 1049.2
20260508012016 9 313 0.0 0.0 0.00 0.00 0.00 78 1049.3
20260508011514 9 313 0.0 0.0 0.00 0.00 0.00 75 1049.2
20260508011011 10 313 0.0 0.0 0.00 0.00 0.00 70 1049.4
20260508010508 10 313 0.0 0.0 0.00 0.00 0.00 69 1049.4
20260508010006 10 313 0.0 0.0 0.00 0.00 0.00 66 1049.1
20260508005502 11 313 0.0 0.0 0.00 0.00 0.00 68 1048.9
20260508004959 11 313 0.0 0.0 0.00 0.00 0.00 64 1048.7
20260508004454 12 313 0.0 0.0 0.00 0.00 0.00 64 1048.9
20260508003951 13 313 0.0 0.0 0.00 0.00 0.00 57 1048.9
20260508003448 13 313 0.0 0.0 0.00 0.00 0.00 57 1048.8
20260508002945 15 313 0.0 0.0 0.00 0.00 0.00 51 1048.8
20260508002442 15 313 0.0 0.0 0.00 0.00 0.00 44 1049.0
20260508001938 16 313 0.0 0.0 0.00 0.00 0.00 39 1048.9
20260508001434 16 313 0.0 1.6 0.00 0.00 0.00 37 1048.8
20260508000931 17 313 0.0 0.0 0.00 0.00 0.00 35 1048.7